• In Germany
  • List of Countries
  • For 7 days
  • Water Temperature
  • Satellite Maps
  • Weather Map
  • Weather Widgets
  • user-avatar
    Login

    Hourly Weather Wiktoria

    Today, 26 March, Sunday

    Time Temperature Precipitation Wind Pressure Humidity
    00:00 +19°C° 0 mm 1 mps 748 mmHg 85%
    01:00 +19°C° 0 mm 1 mps 748 mmHg 87%
    02:00 +19°C° 0 mm 1 mps 748 mmHg 88%
    03:00 +18°C° 0 mm 1 mps 748 mmHg 90%
    04:00 +18°C° 0 mm 1 mps 748 mmHg 91%
    05:00 +18°C° 0 mm 1 mps 749 mmHg 91%
    06:00 +18°C° 0 mm 1 mps 749 mmHg 91%
    07:00 +18°C° 0 mm 1 mps 749 mmHg 90%
    08:00 +21°C° 0 mm 1 mps 749 mmHg 78%
    09:00 +24°C° 0 mm 1 mps 749 mmHg 65%
    10:00 +27°C° 0 mm 1 mps 749 mmHg 53%
    11:00 +29°C° 0 mm 1 mps 749 mmHg 48%
    12:00 +30°C° 0 mm 1 mps 748 mmHg 42%
    13:00 +32°C° 0 mm 1 mps 748 mmHg 37%
    14:00 +32°C° 0 mm 1 mps 747 mmHg 37%
    15:00 +33°C° 0 mm 1 mps 747 mmHg 36%
    16:00 +33°C° 0 mm 1 mps 746 mmHg 36%
    17:00 +31°C° 0 mm 1 mps 746 mmHg 42%
    18:00 +28°C° 0 mm 1 mps 746 mmHg 49%
    19:00 +26°C° 0 mm 1 mps 747 mmHg 56%
    20:00 +26°C° 0 mm 1 mps 747 mmHg 58%
    21:00 +25°C° 0 mm 1 mps 747 mmHg 61%
    22:00 +24°C° 0 mm 1 mps 747 mmHg 63%
    23:00 +24°C° 0 mm 1 mps 747 mmHg 64%

    Tomorrow, 27 March, Monday

    Time Temperature Precipitation Wind Pressure Humidity
    00:00 +24°C° 0 mm 1 mps 747 mmHg 65%
    01:00 +23°C° 0 mm 1 mps 747 mmHg 66%
    02:00 +23°C° 0 mm 1 mps 746 mmHg 65%
    03:00 +23°C° 0 mm 1 mps 746 mmHg 65%
    04:00 +23°C° 0 mm 2 mps 746 mmHg 64%
    05:00 +23°C° 0 mm 2 mps 746 mmHg 64%
    06:00 +23°C° 0 mm 2 mps 746 mmHg 64%
    07:00 +23°C° 0 mm 2 mps 746 mmHg 63%
    08:00 +25°C° 0 mm 2 mps 746 mmHg 59%
    09:00 +27°C° 0 mm 3 mps 745 mmHg 54%
    10:00 +29°C° 0 mm 3 mps 745 mmHg 50%
    11:00 +31°C° 0 mm 3 mps 745 mmHg 43%
    12:00 +34°C° 0 mm 3 mps 744 mmHg 37%
    13:00 +37°C° 0 mm 3 mps 744 mmHg 31%
    14:00 +36°C° 0 mm 3 mps 744 mmHg 33%
    15:00 +35°C° 0 mm 3 mps 744 mmHg 35%
    16:00 +33°C° 0 mm 3 mps 744 mmHg 37%
    17:00 +30°C° 0.2 mm 3 mps 744 mmHg 45%
    18:00 +27°C° 0.2 mm 3 mps 745 mmHg 53%
    19:00 +25°C° 0.2 mm 2 mps 746 mmHg 61%
    20:00 +23°C° 0 mm 2 mps 747 mmHg 63%
    21:00 +21°C° 0 mm 2 mps 747 mmHg 64%
    22:00 +20°C° 0 mm 2 mps 748 mmHg 66%
    23:00 +19°C° 0 mm 2 mps 748 mmHg 67%

    Day after tomorrow, 28 March, Tuesday

    Time Temperature Precipitation Wind Pressure Humidity
    00:00 +18°C° 0 mm 2 mps 748 mmHg 69%
    01:00 +18°C° 0 mm 1 mps 748 mmHg 70%
    02:00 +16°C° 0 mm 1 mps 748 mmHg 72%
    03:00 +15°C° 0 mm 1 mps 748 mmHg 74%
    04:00 +15°C° 0 mm 1 mps 748 mmHg 75%
    05:00 +14°C° 0 mm 1 mps 749 mmHg 77%
    06:00 +14°C° 0 mm 1 mps 749 mmHg 78%
    07:00 +14°C° 0 mm 1 mps 750 mmHg 79%
    08:00 +16°C° 0 mm 1 mps 750 mmHg 68%
    09:00 +19°C° 0 mm 1 mps 750 mmHg 57%
    10:00 +21°C° 0 mm 1 mps 750 mmHg 46%
    11:00 +23°C° 0 mm 1 mps 750 mmHg 39%
    12:00 +25°C° 0 mm 1 mps 749 mmHg 33%
    13:00 +27°C° 0 mm 1 mps 749 mmHg 27%
    14:00 +27°C° 0 mm 1 mps 748 mmHg 26%
    15:00 +27°C° 0 mm 1 mps 748 mmHg 25%
    16:00 +27°C° 0 mm 1 mps 748 mmHg 24%
    17:00 +24°C° 0 mm 1 mps 748 mmHg 32%
    18:00 +21°C° 0 mm 1 mps 748 mmHg 40%
    19:00 +18°C° 0 mm 1 mps 748 mmHg 47%
    20:00 +16°C° 0 mm 1 mps 748 mmHg 50%
    21:00 +16°C° 0 mm 1 mps 749 mmHg 53%
    22:00 +15°C° 0 mm 1 mps 749 mmHg 56%
    23:00 +13°C° 0 mm 0 mps 748 mmHg 61%

    29 March, Wednesday

    Time Temperature Precipitation Wind Pressure Humidity
    00:00 +12°C° 0 mm 0 mps 748 mmHg 65%
    01:00 +11°C° 0 mm 0 mps 748 mmHg 70%
    02:00 +11°C° 0 mm 0 mps 747 mmHg 72%
    03:00 +10°C° 0 mm 0 mps 747 mmHg 73%
    04:00 +10°C° 0 mm 0 mps 747 mmHg 75%
    05:00 +11°C° 0 mm 0 mps 747 mmHg 71%
    06:00 +12°C° 0 mm 0 mps 747 mmHg 67%
    07:00 +13°C° 0 mm 1 mps 748 mmHg 64%
    08:00 +18°C° 0 mm 1 mps 748 mmHg 53%
    09:00 +22°C° 0 mm 1 mps 748 mmHg 42%
    10:00 +25°C° 0 mm 1 mps 748 mmHg 32%
    11:00 +27°C° 0 mm 1 mps 747 mmHg 29%
    12:00 +28°C° 0 mm 2 mps 747 mmHg 25%
    13:00 +30°C° 0 mm 2 mps 746 mmHg 22%
    14:00 +30°C° 0 mm 2 mps 745 mmHg 21%
    15:00 +30°C° 0 mm 2 mps 744 mmHg 21%
    16:00 +30°C° 0 mm 2 mps 744 mmHg 20%
    17:00 +27°C° 0 mm 1 mps 744 mmHg 27%
    18:00 +23°C° 0 mm 1 mps 744 mmHg 35%
    19:00 +19°C° 0 mm 1 mps 744 mmHg 42%
    20:00 +19°C° 0 mm 1 mps 744 mmHg 42%
    21:00 +20°C° 0 mm 1 mps 744 mmHg 42%
    22:00 +20°C° 0 mm 1 mps 744 mmHg 41%
    23:00 +20°C° 0 mm 1 mps 744 mmHg 45%

    30 March, Thursday

    Time Temperature Precipitation Wind Pressure Humidity
    00:00 +19°C° 0 mm 1 mps 744 mmHg 49%
    01:00 +18°C° 0 mm 2 mps 745 mmHg 52%
    02:00 +17°C° 0 mm 2 mps 745 mmHg 59%
    03:00 +17°C° 0 mm 2 mps 746 mmHg 65%
    04:00 +16°C° 0 mm 2 mps 746 mmHg 72%
    05:00 +16°C° 0 mm 2 mps 747 mmHg 70%
    06:00 +16°C° 0 mm 2 mps 748 mmHg 68%
    07:00 +15°C° 0 mm 2 mps 748 mmHg 66%
    08:00 +16°C° 0 mm 3 mps 749 mmHg 61%
    09:00 +16°C° 0 mm 3 mps 749 mmHg 57%
    10:00 +17°C° 0 mm 3 mps 750 mmHg 52%
    11:00 +18°C° 0 mm 3 mps 750 mmHg 46%
    12:00 +19°C° 0 mm 4 mps 750 mmHg 40%
    13:00 +19°C° 0 mm 4 mps 749 mmHg 34%
    14:00 +19°C° 0 mm 4 mps 749 mmHg 34%
    15:00 +19°C° 0 mm 4 mps 750 mmHg 33%
    16:00 +19°C° 0 mm 4 mps 750 mmHg 32%
    17:00 +18°C° 0 mm 3 mps 750 mmHg 37%
    18:00 +16°C° 0 mm 2 mps 751 mmHg 41%
    19:00 +14°C° 0 mm 2 mps 752 mmHg 46%
    20:00 +14°C° 0 mm 2 mps 753 mmHg 51%
    21:00 +13°C° 0 mm 2 mps 753 mmHg 56%
    22:00 +12°C° 0 mm 2 mps 754 mmHg 61%
    23:00 +11°C° 0 mm 1 mps 754 mmHg 65%

    31 March, Friday

    Time Temperature Precipitation Wind Pressure Humidity
    00:00 +11°C° 0 mm 1 mps 754 mmHg 70%
    01:00 +10°C° 0 mm 1 mps 754 mmHg 74%
    02:00 +10°C° 0 mm 1 mps 754 mmHg 77%
    03:00 +9°C° 0 mm 1 mps 754 mmHg 80%
    04:00 +9°C° 0 mm 1 mps 754 mmHg 82%
    05:00 +9°C° 0 mm 1 mps 755 mmHg 84%
    06:00 +9°C° 0 mm 1 mps 755 mmHg 85%
    07:00 +9°C° 0 mm 1 mps 755 mmHg 86%
    08:00 +11°C° 0 mm 1 mps 755 mmHg 75%
    09:00 +14°C° 0 mm 1 mps 756 mmHg 64%
    10:00 +16°C° 0 mm 2 mps 756 mmHg 53%
    11:00 +17°C° 0 mm 2 mps 755 mmHg 48%
    12:00 +19°C° 0 mm 2 mps 755 mmHg 44%
    13:00 +20°C° 0 mm 2 mps 754 mmHg 39%
    14:00 +20°C° 0 mm 2 mps 754 mmHg 39%
    15:00 +20°C° 0 mm 2 mps 754 mmHg 39%
    16:00 +20°C° 0 mm 2 mps 754 mmHg 38%
    17:00 +19°C° 0 mm 2 mps 754 mmHg 44%
    18:00 +17°C° 0 mm 2 mps 754 mmHg 50%
    19:00 +15°C° 0 mm 2 mps 755 mmHg 57%
    20:00 +14°C° 0 mm 2 mps 755 mmHg 61%
    21:00 +14°C° 0 mm 2 mps 755 mmHg 65%
    22:00 +13°C° 0 mm 2 mps 756 mmHg 69%
    23:00 +12°C° 0 mm 2 mps 756 mmHg 72%
    Show more